Zurück zum Katalog

STARLINK-36060

AktivKommunikationVLEO
NORAD 67090·PAYLOAD·🇺🇸 United States

Gestartet Dec 14, 2025 von Vandenberg Space Force Base

Loading…

Nächste Überflüge (nächste 24 Stunden)

TLE

AktuellSource: CelesTrak SupGP

Epoche: Sep 14, 2026, 15:43 UTC

1 67090C 25298R   26257.65534722 -.00053661  00000+0 -44968-2 0  2576
2 67090  69.9997 258.0045 0003597 271.8093  49.8211 14.98357790    10

Verfolge STARLINK-36060 in Echtzeit mit AllMySat

Download on the App Store